Lees voor het posten de FAQ.

Als je iets zoekt op het forum kun je de zoekmachine raadplegen.

Onderwerp Replies Naam starter Datum
Philips PM5167 /01 functiegenerator 12 Tidak Ada 20-04-2017 16:31:23
Status voltmeter 8 RoelP 19-04-2017 22:11:14
Accumaster C3 6 kevinonline 19-04-2017 10:00:54
frequentie berekenen van een periode 9 kevinonline 19-04-2017 03:46:39
40dB meetversterker V2 ontwikkeling 40dB meetversterker V2 ontwikkeling 1 2 3 laatste 59 blackdog 17-04-2017 23:00:16
Philips PM2454 2 MrS 17-04-2017 10:06:48
40dB Voorversterker 40dB Voorversterker 1 2 3 laatste 58 Kridri 16-04-2017 20:01:47
Frequentie regelaar Kimo Motormaster 1,5 kW 4 Toine Dekkers 16-04-2017 19:13:17
Potmeters ossilloscoop SS-5702 6 ericc 16-04-2017 18:07:56
Meten en registreren van waterdruk. 14 pamwikkeling 16-04-2017 17:29:40
Reparatie Hung Chang HC-5050DB 14 flash2b 16-04-2017 10:54:11
hp8616A 8 Ex-fietser 13-04-2017 18:56:25
watermeter wijzertje 14 Tuxracer 13-04-2017 12:03:51
Kleine draadjes, externe aansluiting 2 ABBOV 10-04-2017 18:56:00
Rigol DS2000A series 18 kevinonline 10-04-2017 09:19:29
LCR meter kopen 11 kevinonline 08-04-2017 13:52:22
Labvoeding 15V 2A 12 Luckyboy 03-04-2017 13:59:34
Reparatie philips pm3262 4 joro.ganev 27-03-2017 00:08:29
Philips PM3219 scoop defect in voeding 18 x-ray 24-03-2017 08:24:47
Reparatie en stiller maken Agilent 6612C voeding. 3 meetlint 22-03-2017 15:38:03
Wavetek 180 - geen output, kapot 12 fast4ever 21-03-2017 15:22:51
Reparatie Philips PM5171 Amplifier / Log Converter Reparatie Philips PM5171 Amplifier / Log Converter 1 2 3 laatste 62 flash2b 20-03-2017 16:41:31
Power Supply Current Limit View 5 bluerooo 20-03-2017 16:39:03
50 jaar oude Philips decadebank repareren of origineel laten? 50 jaar oude Philips decadebank repareren of origineel laten? 1 2 laatste 31 meetlint 19-03-2017 17:30:19
Agilent (/HP) 54624A probleem 0 JohanK 19-03-2017 15:26:36
schema manual SBC 550 0 kevinonline 13-03-2017 23:08:08
Probe bestellen 15 yannick90 10-03-2017 15:39:41
Fluke 2042 kabelzoeker 4 Thehof 08-03-2017 21:18:25
siemens tv antenna level meter sam390 0 fred-loes 08-03-2017 19:22:17
Oscilloscoop voor een witgoedmonteur? 21 AWDebiel 07-03-2017 22:31:38
toerenteller toerenteller 1 2 laatste 49 gerardvbeek 07-03-2017 19:54:49
DS18B20 en TMP37 Kalibrator 1 blackdog 07-03-2017 13:31:38
Gesloten digitale toerenteller 8 gerardvbeek 06-03-2017 23:53:22
Multie LM399AH Test Board 10 blackdog 05-03-2017 11:15:08
Calibratie Atmel 90E26 14 jgfrm 04-03-2017 18:55:26
Wie heeft er ook een dynatek 6080Rs in zijn bezit 6 mmols4088 04-03-2017 13:04:09
10K en 1K "Home Made" Referentie weerstanden 10K en 1K "Home Made" Referentie weerstanden 1 2 3 laatste 74 blackdog 03-03-2017 17:42:19
VDO brandstofmeter 5 Schippertje1991 01-03-2017 08:47:08
Advantest Spectrum Analyzer met zeer vreemde klacht. Advantest Spectrum Analyzer met zeer vreemde klacht. 1 2 laatste 26 Marcel.G 27-02-2017 20:23:46
LCD-DVMetertjes aansluiten. 0 mtb 27-02-2017 16:42:34
Dynatek 6080 RS 3 Stan1 27-02-2017 09:43:36
Hoe kan ik mijn137MHz QHF antenne doormeten 9 marconist 26-02-2017 23:59:54
Bepaling shunt Amperemeter 11 wouterpw 25-02-2017 21:07:55
Vertikale lijnen scope onzichtbaar 18 tfteetje 20-02-2017 21:31:14
Constant Current Load - Zhiyu ZPB30A1 21 flash2b 19-02-2017 17:34:44
Grundig CB-6 2 dafken 19-02-2017 12:38:00
Hitachi oscilloscoop probleem 7 Cgreen 14-02-2017 22:43:12
Oude labvoeding, Philips PE 1542, aankoop en vraag. Oude labvoeding, Philips PE 1542, aankoop en vraag. 1 2 3 4 laatste 79 sanscorp 13-02-2017 10:56:40
Temperatuur schakelaar voor 12v fans 11 robbiejan14 12-02-2017 16:55:24
memory HP-545 logic probe 6 fred101 09-02-2017 16:56:32